New Cumberland, PA

9:34 PM EST on February 21, 2017 (GMT -0500)
Capital City

Weather History for KCXY - April, 2013

Change the Weather History Date:

Wednesday, April 24, 2013

  Actual Average Record
Temperature  
Mean Temperature 58 °F -  
Max Temperature 75 °F 64 °F 90 °F (1960)
Min Temperature 44 °F 42 °F 30 °F (2002)
Degree Days  
Heating Degree Days 6    
Growing Degree Days 8 (Base 50)    
Moisture  
Dew Point 48 °F    
Average Humidity 77    
Maximum Humidity 94    
Minimum Humidity 44    
Precipitation  
Precipitation 0.12 in - - ()
Sea Level Pressure  
Sea Level Pressure 29.97 in    
Wind  
Wind Speed 4 mph (SE)    
Max Wind Speed 22 mph    
Max Gust Speed 31 mph    
Visibility 7 miles    
Events Rain    
Averages and records for this station are not official NWS values.
T = Trace of Precipitation, MM = Missing Value Source: NWS Daily Summary

Daily Weather History Graph

Daily Weather History Graph

Search for Another Location

Airport or City:

Trip Planner

Search our weather history database for the weather conditions in past years. The results will help you decide how hot, cold, wet, or windy it might be!

Date:

Astronomy

Apr. 24, 2013 Rise Set
Actual Time 6:15 AM EDT 7:55 PM EDT
Civil Twilight 5:47 AM EDT 8:24 PM EDT
Nautical Twilight 5:12 AM EDT 8:59 PM EDT
Astronomical Twilight 4:35 AM EDT 9:36 PM EDT
Moon 6:56 PM EDT (4/24) 5:18 AM EDT (4/24)
Length of Visible Light 14h 37m
Length of Day
13h 39m
Waxing Gibbous, 98% of the Moon is Illuminated
Apr 24
Waxing Gibbous
Apr 25
Full
May 2
Last Quarter
May 9
New
May 18
First Quarter

Hourly Weather History & Observations

Time (EDT) Temp. Windchill Dew Point Humidity Pressure Visibility Wind Dir Wind Speed Gust Speed Precip Events Conditions
12:56 AM 46.0 °F - 41.0 °F 83% 30.13 in 10.0 mi Calm Calm - N/A   Clear
1:56 AM 44.1 °F - 41.0 °F 89% 30.11 in 9.0 mi Calm Calm - N/A   Clear
2:56 AM 44.1 °F - 41.0 °F 89% 30.09 in 8.0 mi Calm Calm - N/A   Clear
3:56 AM 44.1 °F 42.5 °F 41.0 °F 89% 30.09 in 7.0 mi ESE 3.5 mph - N/A   Clear
4:56 AM 44.1 °F - 42.1 °F 93% 30.08 in 5.0 mi Calm Calm - N/A   Clear
5:56 AM 45.0 °F 42.6 °F 42.1 °F 90% 30.08 in 5.0 mi SE 4.6 mph - N/A   Partly Cloudy
6:09 AM 44.6 °F 43.1 °F 42.8 °F 93% 30.07 in 5.0 mi ESE 3.5 mph - N/A   Partly Cloudy
6:24 AM 44.6 °F 42.2 °F 42.8 °F 93% 30.07 in 4.0 mi SSE 4.6 mph - N/A   Mostly Cloudy
6:56 AM 46.0 °F 44.8 °F 43.0 °F 89% 30.08 in 2.5 mi SSE 3.5 mph - N/A   Overcast
7:03 AM 46.4 °F - 42.8 °F 87% 30.07 in 3.0 mi Calm Calm - N/A   Overcast
7:10 AM 46.4 °F 45.2 °F 42.8 °F 87% 30.07 in 2.5 mi ESE 3.5 mph - N/A   Overcast
7:56 AM 46.9 °F - 44.1 °F 90% 30.07 in 2.5 mi ESE 3.5 mph - N/A   Overcast
8:29 AM 48.2 °F - 44.6 °F 87% 30.05 in 2.5 mi SE 3.5 mph - N/A   Overcast
8:54 AM 50.0 °F - 44.6 °F 82% 30.04 in 4.0 mi East 3.5 mph - N/A   Haze
8:56 AM 50.0 °F - 45.0 °F 83% 30.05 in 4.0 mi East 3.5 mph - N/A   Haze
9:19 AM 51.8 °F - 46.4 °F 82% 30.04 in 5.0 mi Calm Calm - N/A   Haze
9:56 AM 54.0 °F - 48.0 °F 80% 30.02 in 6.0 mi East 5.8 mph - N/A   Haze
10:12 AM 53.6 °F - 46.4 °F 77% 30.01 in 7.0 mi East 4.6 mph - N/A   Scattered Clouds
10:56 AM 57.0 °F - 48.9 °F 74% 29.99 in 7.0 mi East 6.9 mph - N/A   Clear
11:56 AM 63.0 °F - 51.1 °F 65% 29.96 in 9.0 mi East 5.8 mph - N/A   Clear
12:56 PM 68.0 °F - 52.0 °F 56% 29.91 in 10.0 mi Variable 3.5 mph - N/A   Clear
1:56 PM 71.1 °F - 52.0 °F 51% 29.87 in 10.0 mi South 9.2 mph 17.3 mph N/A   Clear
2:56 PM 73.0 °F - 52.0 °F 48% 29.84 in 10.0 mi SSE 9.2 mph 18.4 mph N/A   Clear
3:56 PM 73.9 °F - 51.1 °F 45% 29.80 in 10.0 mi South 13.8 mph 21.9 mph N/A   Clear
4:56 PM 73.0 °F - 50.0 °F 44% 29.76 in 10.0 mi South 15.0 mph 26.5 mph N/A   Clear
5:56 PM 73.0 °F - 54.0 °F 51% 29.78 in 10.0 mi Calm Calm - N/A   Scattered Clouds
6:56 PM 64.9 °F - 57.9 °F 78% 29.85 in 3.0 mi West 10.4 mph 27.6 mph 0.06 in Rain Heavy Rain
7:03 PM 64.4 °F - 59.0 °F 83% 29.83 in 1.8 mi WNW 8.1 mph - 0.03 in Rain Heavy Rain
7:12 PM 62.6 °F - 60.8 °F 94% 29.82 in 3.0 mi Calm Calm - 0.04 in Rain Light Rain
7:56 PM 63.0 °F - 60.1 °F 90% 29.82 in 10.0 mi SE 4.6 mph - 0.05 in Rain Light Rain
8:56 PM 64.9 °F - 57.0 °F 75% 29.83 in 10.0 mi Variable 3.5 mph - 0.00 in   Overcast
9:56 PM 64.9 °F - 55.9 °F 73% 29.86 in 10.0 mi SW 9.2 mph - 0.00 in   Overcast
10:56 PM 57.9 °F - 45.0 °F 62% 29.96 in 10.0 mi WNW 16.1 mph 31.1 mph 0.01 in   Overcast
11:56 PM 53.1 °F - 37.0 °F 55% 30.03 in 10.0 mi WNW 21.9 mph 31.1 mph N/A   Overcast